owner,sensor,date,latitude,longitude,vertical_datum,direction_of_sea_water_velocity,sea_water_speed,upward_sea_water_velocity,qcFlag 
TABS,ioos:station:wmo:42051:1,2006-06-11T15:30:00Z,29.6350,-93.6417,2.0,121.995189,12.00341618,-99999.0,'11111222,11111222,99999999' 
TABS,ioos:station:wmo:42051:1,2006-06-11T16:00:00Z,29.6350,-93.6417,2.0,117.0040276,7.003570518,-99999.0,'11133222,11111222,99999999' 
TABS,ioos:station:wmo:42051:1,2006-06-11T16:30:00Z,29.6350,-93.6417,2.0,141.0380475,7.999331222,-99999.0,'11133222,11111222,99999999' 
TABS,ioos:station:wmo:42051:1,2006-06-11T17:00:00Z,29.6350,-93.6417,2.0,147.0137547,6.998071163,-99999.0,'11133222,11111222,99999999' 
TABS,ioos:station:wmo:42051:1,2006-06-11T17:30:00Z,29.6350,-93.6417,2.0,159.028128,5.001299831,-99999.0,'11133222,11111222,99999999' 
TABS,ioos:station:wmo:42051:1,2006-06-13T03:00:00Z,29.6350,-93.6417,2.0,68.99933969,19.0022025,-99999.0,'11111222,11111222,99999999' 
TABS,ioos:station:wmo:42051:1,2006-06-13T03:30:00Z,29.6350,-93.6417,2.0,55.98221381,15.99781548,-99999.0,'11111222,11111222,99999999' 
TABS,ioos:station:wmo:42051:1,2006-06-14T01:30:00Z,29.6350,-93.6417,2.0,62.01572579,13.00001538,-99999.0,'11111222,11111222,99999999' 
TABS,ioos:station:wmo:42051:1,2006-06-15T21:00:00Z,29.6350,-93.6417,2.0,40.97429048,13.99990357,-99999.0,'11111222,11111222,99999999' 
TABS,ioos:station:wmo:42051:1,2006-06-15T21:30:00Z,29.6350,-93.6417,2.0,50.00494375,11.99584095,-99999.0,'11111222,11111222,99999999' 
TABS,ioos:station:wmo:42051:1,2006-06-16T00:30:00Z,29.6350,-93.6417,2.0,137.0049378,15.76399061,-99999.0,'11111222,11111222,99999999' 
TABS,ioos:station:wmo:42051:1,2006-06-16T01:00:00Z,29.6350,-93.6417,2.0,154.117994,16.12766877,-99999.0,'11111222,11111222,99999999' 
TABS,ioos:station:wmo:42051:1,2006-06-16T01:30:00Z,29.6350,-93.6417,2.0,150.9200047,17.63272526,-99999.0,'11111222,11111222,99999999' 
TABS,ioos:station:wmo:42051:1,2006-06-16T02:00:00Z,29.6350,-93.6417,2.0,175.7473416,34.25430192,-99999.0,'11111222,11111222,99999999' 
TABS,ioos:station:wmo:42051:1,2006-06-16T02:30:00Z,29.6350,-93.6417,2.0,164.9999644,12.40260053,-99999.0,'11111222,11111222,99999999' 
TABS,ioos:station:wmo:42051:1,2006-06-16T03:00:00Z,29.6350,-93.6417,2.0,157.5887529,26.17709686,-99999.0,'11111222,11111222,99999999' 
TABS,ioos:station:wmo:42051:1,2006-06-16T03:30:00Z,29.6350,-93.6417,2.0,211.7188436,17.82196678,-99999.0,'11111222,11111222,99999999' 
TABS,ioos:station:wmo:42051:1,2006-06-16T04:00:00Z,29.6350,-93.6417,2.0,171.0340866,17.26089801,-99999.0,'11111222,11111222,99999999' 
TABS,ioos:station:wmo:42051:1,2006-06-16T04:30:00Z,29.6350,-93.6417,2.0,172.8595598,23.3309344,-99999.0,'11111222,11111222,99999999' 
TABS,ioos:station:wmo:42051:1,2006-06-16T05:00:00Z,29.6350,-93.6417,2.0,204.9861643,20.45436873,-99999.0,'11111222,11111222,99999999' 
TABS,ioos:station:wmo:42051:1,2006-06-16T05:30:00Z,29.6350,-93.6417,2.0,177.8795698,24.32665411,-99999.0,'11111222,11111222,99999999' 
TABS,ioos:station:wmo:42051:1,2006-06-16T06:00:00Z,29.6350,-93.6417,2.0,148.8198965,23.17819881,-99999.0,'11111222,11111222,99999999' 
TABS,ioos:station:wmo:42051:1,2006-06-16T06:30:00Z,29.6350,-93.6417,2.0,177.2498773,15.00728157,-99999.0,'11111222,11111222,99999999' 
TABS,ioos:station:wmo:42051:1,2006-06-16T07:00:00Z,29.6350,-93.6417,2.0,54.37217602,11.07260132,-99999.0,'11111222,11111222,99999999' 
TABS,ioos:station:wmo:42051:1,2006-06-16T07:30:00Z,29.6350,-93.6417,2.0,70.12239782,10.67607137,-99999.0,'11111222,11111222,99999999' 
TABS,ioos:station:wmo:42051:1,2006-06-16T08:00:00Z,29.6350,-93.6417,2.0,54.93290535,10.61725482,-99999.0,'11111222,11111222,99999999' 
TABS,ioos:station:wmo:42051:1,2006-06-16T08:30:00Z,29.6350,-93.6417,2.0,65.40685212,11.43755219,-99999.0,'11111222,11111222,99999999' 
TABS,ioos:station:wmo:42051:1,2006-06-16T09:00:00Z,29.6350,-93.6417,2.0,54.93985797,10.32314874,-99999.0,'11111222,11111222,99999999' 
TABS,ioos:station:wmo:42051:1,2006-06-16T10:30:00Z,29.6350,-93.6417,2.0,62.69345004,9.329657014,-99999.0,'11133222,11111222,99999999' 
TABS,ioos:station:wmo:42051:1,2006-06-16T11:00:00Z,29.6350,-93.6417,2.0,38.84360028,8.769201788,-99999.0,'11133222,11111222,99999999' 
TABS,ioos:station:wmo:42051:1,2006-06-16T11:30:00Z,29.6350,-93.6417,2.0,37.45881966,9.536503552,-99999.0,'11133222,11111222,99999999' 
TABS,ioos:station:wmo:42051:1,2006-06-16T12:30:00Z,29.6350,-93.6417,2.0,14.18611546,7.426466185,-99999.0,'11133222,11111222,99999999' 
TABS,ioos:station:wmo:42051:1,2006-06-16T13:00:00Z,29.6350,-93.6417,2.0,37.78484467,10.02127736,-99999.0,'11111222,11111222,99999999' 
TABS,ioos:station:wmo:42051:1,2006-06-16T13:30:00Z,29.6350,-93.6417,2.0,48.64528789,7.340476824,-99999.0,'11133222,11111222,99999999' 
TABS,ioos:station:wmo:42051:1,2006-06-16T14:00:00Z,29.6350,-93.6417,2.0,30.70607584,9.909288572,-99999.0,'11133222,11111222,99999999' 
TABS,ioos:station:wmo:42051:1,2006-06-16T14:30:00Z,29.6350,-93.6417,2.0,9.49965004,17.75345037,-99999.0,'11111222,11111222,99999999' 
TABS,ioos:station:wmo:42051:1,2006-06-16T15:30:00Z,29.6350,-93.6417,2.0,58.11026237,11.03566038,-99999.0,'11111222,11111222,99999999' 
TABS,ioos:station:wmo:42051:1,2006-06-16T16:00:00Z,29.6350,-93.6417,2.0,62.54381722,10.06352324,-99999.0,'11111222,11111222,99999999' 
TABS,ioos:station:wmo:42051:1,2006-06-16T16:30:00Z,29.6350,-93.6417,2.0,112.6984167,6.167698112,-99999.0,'11133222,11111222,99999999' 
TABS,ioos:station:wmo:42051:1,2006-06-16T17:00:00Z,29.6350,-93.6417,2.0,40.94267734,8.194693405,-99999.0,'11133222,11111222,99999999' 
TABS,ioos:station:wmo:42051:1,2006-06-16T18:00:00Z,29.6350,-93.6417,2.0,50.30265406,10.17638934,-99999.0,'11111222,11111222,99999999' 
TABS,ioos:station:wmo:42051:1,2006-06-16T19:00:00Z,29.6350,-93.6417,2.0,75.4318822,7.315189676,-99999.0,'11133222,11111222,99999999' 
TABS,ioos:station:wmo:42051:1,2006-06-16T19:30:00Z,29.6350,-93.6417,2.0,356.2004411,7.997580884,-99999.0,'11133222,11111222,99999999' 
TABS,ioos:station:wmo:42051:1,2006-06-16T20:00:00Z,29.6350,-93.6417,2.0,331.9711147,7.001178472,-99999.0,'11133222,11111222,99999999' 
TABS,ioos:station:wmo:42051:1,2006-06-16T21:00:00Z,29.6350,-93.6417,2.0,9.862137856,6.364039598,-99999.0,'11133222,11111222,99999999' 
TABS,ioos:station:wmo:42051:1,2006-06-16T22:00:00Z,29.6350,-93.6417,2.0,14.06019523,11.69021813,-99999.0,'11111222,11111222,99999999' 
TABS,ioos:station:wmo:42051:1,2006-06-16T22:30:00Z,29.6350,-93.6417,2.0,11.01774286,11.14542507,-99999.0,'11111222,11111222,99999999' 
TABS,ioos:station:wmo:42051:1,2006-06-16T23:00:00Z,29.6350,-93.6417,2.0,346.7597215,9.430694566,-99999.0,'11133222,11111222,99999999' 
TABS,ioos:station:wmo:42051:1,2006-06-17T00:00:00Z,29.6350,-93.6417,2.0,339.265025,10.47874515,-99999.0,'11111222,11111222,99999999' 
TABS,ioos:station:wmo:42051:1,2006-06-17T00:30:00Z,29.6350,-93.6417,2.0,339.2531732,8.073543212,-99999.0,'11133222,11111222,99999999' 
TABS,ioos:station:wmo:42051:1,2006-06-17T01:00:00Z,29.6350,-93.6417,2.0,332.6763831,8.104221122,-99999.0,'11133222,11111222,99999999' 
TABS,ioos:station:wmo:42051:1,2006-06-17T01:30:00Z,29.6350,-93.6417,2.0,319.8022455,8.784816447,-99999.0,'11133222,11111222,99999999' 
TABS,ioos:station:wmo:42051:1,2006-06-17T02:00:00Z,29.6350,-93.6417,2.0,295.6475342,6.700119402,-99999.0,'11133222,11111222,99999999' 
TABS,ioos:station:wmo:42051:1,2006-06-17T02:30:00Z,29.6350,-93.6417,2.0,290.3123686,7.144256434,-99999.0,'11133222,11111222,99999999' 
TABS,ioos:station:wmo:42051:1,2006-06-17T03:00:00Z,29.6350,-93.6417,2.0,291.2799756,7.136567803,-99999.0,'11133222,11111222,99999999' 
TABS,ioos:station:wmo:42051:1,2006-06-17T03:30:00Z,29.6350,-93.6417,2.0,286.9394669,2.059344556,-99999.0,'11133222,11111222,99999999' 
TABS,ioos:station:wmo:42051:1,2006-06-17T04:00:00Z,29.6350,-93.6417,2.0,285.3197447,7.040149146,-99999.0,'11133222,11111222,99999999' 
TABS,ioos:station:wmo:42051:1,2006-06-17T04:30:00Z,29.6350,-93.6417,2.0,9.514408755,1.814965564,-99999.0,'11133222,11111222,99999999' 
TABS,ioos:station:wmo:42051:1,2006-06-17T05:00:00Z,29.6350,-93.6417,2.0,236.253363,2.826198861,-99999.0,'11133222,11111222,99999999' 
TABS,ioos:station:wmo:42051:1,2006-06-17T05:30:00Z,29.6350,-93.6417,2.0,93.69137735,0.931933474,-99999.0,'11133222,11111222,99999999' 
TABS,ioos:station:wmo:42051:1,2006-06-17T06:00:00Z,29.6350,-93.6417,2.0,277.4150339,1.472311108,-99999.0,'11133222,11111222,99999999' 
TABS,ioos:station:wmo:42051:1,2006-06-17T06:30:00Z,29.6350,-93.6417,2.0,126.0981996,3.564323218,-99999.0,'11133222,11111222,99999999' 
TABS,ioos:station:wmo:42051:1,2006-06-17T07:00:00Z,29.6350,-93.6417,2.0,9.323780434,2.715879231,-99999.0,'11133222,11111222,99999999' 
TABS,ioos:station:wmo:42051:1,2006-06-17T08:00:00Z,29.6350,-93.6417,2.0,305.2448625,8.179290923,-99999.0,'11133222,11111222,99999999' 
TABS,ioos:station:wmo:42051:1,2006-06-17T08:30:00Z,29.6350,-93.6417,2.0,315.3186216,7.636871087,-99999.0,'11133222,11111222,99999999' 
TABS,ioos:station:wmo:42051:1,2006-06-17T09:30:00Z,29.6350,-93.6417,2.0,280.7608651,2.249555512,-99999.0,'11133222,11111222,99999999' 
TABS,ioos:station:wmo:42051:1,2006-06-17T11:30:00Z,29.6350,-93.6417,2.0,312.9031024,2.511911623,-99999.0,'11133222,11111222,99999999' 
TABS,ioos:station:wmo:42051:1,2006-06-17T12:00:00Z,29.6350,-93.6417,2.0,310.4133552,4.95146443,-99999.0,'11133222,11111222,99999999' 
TABS,ioos:station:wmo:42051:1,2006-06-17T13:00:00Z,29.6350,-93.6417,2.0,311.0551387,3.288768767,-99999.0,'11133222,11111222,99999999' 
TABS,ioos:station:wmo:42051:1,2006-06-17T13:30:00Z,29.6350,-93.6417,2.0,167.6750909,2.436144495,-99999.0,'11133222,11111222,99999999' 
TABS,ioos:station:wmo:42051:1,2006-06-17T14:30:00Z,29.6350,-93.6417,2.0,325.0400641,7.382099972,-99999.0,'11133222,11111222,99999999' 
TABS,ioos:station:wmo:42051:1,2006-06-17T15:00:00Z,29.6350,-93.6417,2.0,309.9531125,2.491605908,-99999.0,'11133222,11111222,99999999' 
TABS,ioos:station:wmo:42051:1,2006-06-17T15:30:00Z,29.6350,-93.6417,2.0,6.066083571,3.690663897,-99999.0,'11133222,11111222,99999999' 
TABS,ioos:station:wmo:42051:1,2006-06-17T16:00:00Z,29.6350,-93.6417,2.0,313.4401196,3.635876786,-99999.0,'11133222,11111222,99999999' 
TABS,ioos:station:wmo:42051:1,2006-06-17T16:30:00Z,29.6350,-93.6417,2.0,301.9280228,4.689434934,-99999.0,'11133222,11111222,99999999' 
TABS,ioos:station:wmo:42051:1,2006-06-17T17:30:00Z,29.6350,-93.6417,2.0,329.8535794,3.006675905,-99999.0,'11133222,11111222,99999999' 
TABS,ioos:station:wmo:42051:1,2006-06-17T18:00:00Z,29.6350,-93.6417,2.0,355.5874275,6.238493408,-99999.0,'11133222,11111222,99999999' 
TABS,ioos:station:wmo:42051:1,2006-06-17T18:30:00Z,29.6350,-93.6417,2.0,18.27654929,6.855844222,-99999.0,'11133222,11111222,99999999' 
TABS,ioos:station:wmo:42051:1,2006-06-17T19:00:00Z,29.6350,-93.6417,2.0,18.09742473,4.828881858,-99999.0,'11133222,11111222,99999999' 
TABS,ioos:station:wmo:42051:1,2006-06-17T19:30:00Z,29.6350,-93.6417,2.0,50.85207787,7.698084177,-99999.0,'11133222,11111222,99999999' 
TABS,ioos:station:wmo:42051:1,2006-06-17T20:00:00Z,29.6350,-93.6417,2.0,17.80257034,9.452623974,-99999.0,'11133222,11111222,99999999' 
TABS,ioos:station:wmo:42051:1,2006-06-17T20:30:00Z,29.6350,-93.6417,2.0,52.0103097,7.879505061,-99999.0,'11133222,11111222,99999999' 
TABS,ioos:station:wmo:42051:1,2006-06-17T21:00:00Z,29.6350,-93.6417,2.0,31.12529034,10.34998068,-99999.0,'11111222,11111222,99999999' 
TABS,ioos:station:wmo:42051:1,2006-06-17T21:30:00Z,29.6350,-93.6417,2.0,34.66442899,5.872350466,-99999.0,'11133222,11111222,99999999' 
TABS,ioos:station:wmo:42051:1,2006-06-17T22:00:00Z,29.6350,-93.6417,2.0,90.0,2.7,-99999.0,'11133222,11111222,99999999' 
TABS,ioos:station:wmo:42051:1,2006-06-17T23:00:00Z,29.6350,-93.6417,2.0,354.4923028,2.812987735,-99999.0,'11133222,11111222,99999999' 
TABS,ioos:station:wmo:42051:1,2006-06-17T23:30:00Z,29.6350,-93.6417,2.0,6.299549434,6.197418818,-99999.0,'11133222,11111222,99999999' 
TABS,ioos:station:wmo:42051:1,2006-06-18T00:00:00Z,29.6350,-93.6417,2.0,279.1892355,2.066518812,-99999.0,'11133222,11111222,99999999' 
TABS,ioos:station:wmo:42051:1,2006-06-18T00:30:00Z,29.6350,-93.6417,2.0,267.5564467,3.753411781,-99999.0,'11133222,11111222,99999999' 
TABS,ioos:station:wmo:42051:1,2006-06-18T01:30:00Z,29.6350,-93.6417,2.0,63.26796872,3.067898303,-99999.0,'11133222,11111222,99999999' 
TABS,ioos:station:wmo:42051:1,2006-06-18T02:00:00Z,29.6350,-93.6417,2.0,127.8522217,2.216325788,-99999.0,'11133222,11111222,99999999' 
TABS,ioos:station:wmo:42051:1,2006-06-18T02:30:00Z,29.6350,-93.6417,2.0,124.4703113,3.869392717,-99999.0,'11133222,11111222,99999999' 
TABS,ioos:station:wmo:42051:1,2006-06-18T03:00:00Z,29.6350,-93.6417,2.0,206.3418395,1.149347641,-99999.0,'11133222,11111222,99999999' 
TABS,ioos:station:wmo:42051:1,2006-06-18T03:30:00Z,29.6350,-93.6417,2.0,39.41751253,0.94493386,-99999.0,'11133222,11111222,99999999' 
TABS,ioos:station:wmo:42051:1,2006-06-18T04:00:00Z,29.6350,-93.6417,2.0,188.7459314,1.841412501,-99999.0,'11133222,11111222,99999999' 
TABS,ioos:station:wmo:42051:1,2006-06-18T04:30:00Z,29.6350,-93.6417,2.0,157.0509059,1.205404496,-99999.0,'11133222,11111222,99999999' 
TABS,ioos:station:wmo:42051:1,2006-06-18T05:00:00Z,29.6350,-93.6417,2.0,115.2144578,2.276949714,-99999.0,'11133222,11111222,99999999' 
TABS,ioos:station:wmo:42051:1,2006-06-18T05:30:00Z,29.6350,-93.6417,2.0,115.8410754,2.477761086,-99999.0,'11133222,11111222,99999999' 
TABS,ioos:station:wmo:42051:1,2006-06-18T06:00:00Z,29.6350,-93.6417,2.0,150.1009576,3.691287038,-99999.0,'11133222,11111222,99999999' 
TABS,ioos:station:wmo:42051:1,2006-06-18T06:30:00Z,29.6350,-93.6417,2.0,106.8713929,2.549745085,-99999.0,'11133222,11111222,99999999' 
TABS,ioos:station:wmo:42051:1,2006-06-18T07:00:00Z,29.6350,-93.6417,2.0,141.6133398,4.911720676,-99999.0,'11133222,11111222,99999999' 
TABS,ioos:station:wmo:42051:1,2006-06-18T07:30:00Z,29.6350,-93.6417,2.0,138.9064418,7.576575744,-99999.0,'11133222,11111222,99999999' 
TABS,ioos:station:wmo:42051:1,2006-06-18T08:00:00Z,29.6350,-93.6417,2.0,104.4541146,3.32525187,-99999.0,'11133222,11111222,99999999' 
TABS,ioos:station:wmo:42051:1,2006-06-18T08:30:00Z,29.6350,-93.6417,2.0,119.2751858,3.783186488,-99999.0,'11133222,11111222,99999999' 
TABS,ioos:station:wmo:42051:1,2006-06-18T09:00:00Z,29.6350,-93.6417,2.0,116.686981,6.301253843,-99999.0,'11133222,11111222,99999999' 
TABS,ioos:station:wmo:42051:1,2006-06-18T09:30:00Z,29.6350,-93.6417,2.0,55.89110739,8.345687509,-99999.0,'11133222,11111222,99999999' 
TABS,ioos:station:wmo:42051:1,2006-06-18T10:00:00Z,29.6350,-93.6417,2.0,74.60722869,5.839469154,-99999.0,'11133222,11111222,99999999' 
TABS,ioos:station:wmo:42051:1,2006-06-18T10:30:00Z,29.6350,-93.6417,2.0,82.57200672,7.27101781,-99999.0,'11133222,11111222,99999999' 
TABS,ioos:station:wmo:42051:1,2006-06-18T11:00:00Z,29.6350,-93.6417,2.0,94.33584138,4.894006539,-99999.0,'11133222,11111222,99999999' 
TABS,ioos:station:wmo:42051:1,2006-06-18T11:30:00Z,29.6350,-93.6417,2.0,72.49177463,3.323988568,-99999.0,'11133222,11111222,99999999' 
TABS,ioos:station:wmo:42051:1,2006-06-18T12:00:00Z,29.6350,-93.6417,2.0,95.30091412,1.94833262,-99999.0,'11133222,11111222,99999999' 
TABS,ioos:station:wmo:42051:1,2006-06-18T12:30:00Z,29.6350,-93.6417,2.0,256.3186857,1.564384863,-99999.0,'11133222,11111222,99999999' 
TABS,ioos:station:wmo:42051:1,2006-06-18T13:00:00Z,29.6350,-93.6417,2.0,71.27213152,4.329214709,-99999.0,'11133222,11111222,99999999' 
TABS,ioos:station:wmo:42051:1,2006-06-18T13:30:00Z,29.6350,-93.6417,2.0,73.37556073,4.404089009,-99999.0,'11133222,11111222,99999999' 
TABS,ioos:station:wmo:42051:1,2006-06-18T14:00:00Z,29.6350,-93.6417,2.0,66.98044213,6.725548305,-99999.0,'11133222,11111222,99999999' 
TABS,ioos:station:wmo:42051:1,2006-06-18T14:30:00Z,29.6350,-93.6417,2.0,52.10613076,7.945269033,-99999.0,'11133222,11111222,99999999' 
TABS,ioos:station:wmo:42051:1,2006-06-18T15:00:00Z,29.6350,-93.6417,2.0,61.06005498,6.799014634,-99999.0,'11133222,11111222,99999999' 
TABS,ioos:station:wmo:42051:1,2006-06-18T15:30:00Z,29.6350,-93.6417,2.0,117.8624038,7.702992925,-99999.0,'11133222,11111222,99999999' 
TABS,ioos:station:wmo:42051:1,2006-06-18T16:00:00Z,29.6350,-93.6417,2.0,97.95306337,10.98566338,-99999.0,'11111222,11111222,99999999' 
TABS,ioos:station:wmo:42051:1,2006-06-18T16:30:00Z,29.6350,-93.6417,2.0,119.0081215,8.392883891,-99999.0,'11133222,11111222,99999999' 
TABS,ioos:station:wmo:42051:1,2006-06-18T17:00:00Z,29.6350,-93.6417,2.0,152.8661279,9.011797823,-99999.0,'11133222,11111222,99999999' 
TABS,ioos:station:wmo:42051:1,2006-06-18T17:30:00Z,29.6350,-93.6417,2.0,138.458851,9.258752616,-99999.0,'11133222,11111222,99999999' 
TABS,ioos:station:wmo:42051:1,2006-06-18T18:00:00Z,29.6350,-93.6417,2.0,128.3846569,9.759410843,-99999.0,'11133222,11111222,99999999' 
TABS,ioos:station:wmo:42051:1,2006-06-18T18:30:00Z,29.6350,-93.6417,2.0,126.8698114,8.1,-99999.0,'11133222,11111222,99999999' 
TABS,ioos:station:wmo:42051:1,2006-06-18T19:00:00Z,29.6350,-93.6417,2.0,134.0432846,7.623673655,-99999.0,'11133222,11111222,99999999' 
TABS,ioos:station:wmo:42051:1,2006-06-18T19:30:00Z,29.6350,-93.6417,2.0,133.7896034,6.025894125,-99999.0,'11133222,11111222,99999999' 
TABS,ioos:station:wmo:42051:1,2006-06-18T20:00:00Z,29.6350,-93.6417,2.0,143.2177202,6.530007657,-99999.0,'11133222,11111222,99999999' 
TABS,ioos:station:wmo:42051:1,2006-06-18T20:30:00Z,29.6350,-93.6417,2.0,108.2725955,4.465153973,-99999.0,'11133222,11111222,99999999' 
TABS,ioos:station:wmo:42051:1,2006-06-18T21:00:00Z,29.6350,-93.6417,2.0,98.09700272,9.797673193,-99999.0,'11133222,11111222,99999999' 
TABS,ioos:station:wmo:42051:1,2006-06-18T21:30:00Z,29.6350,-93.6417,2.0,104.0362106,7.792669632,-99999.0,'11133222,11111222,99999999' 
TABS,ioos:station:wmo:42051:1,2006-06-18T22:00:00Z,29.6350,-93.6417,2.0,90.73562874,13.24109134,-99999.0,'11111222,11111222,99999999' 
TABS,ioos:station:wmo:42051:1,2006-06-18T22:30:00Z,29.6350,-93.6417,2.0,100.3384696,9.138364186,-99999.0,'11133222,11111222,99999999' 
TABS,ioos:station:wmo:42051:1,2006-06-18T23:00:00Z,29.6350,-93.6417,2.0,110.7159164,7.548012984,-99999.0,'11133222,11111222,99999999' 
TABS,ioos:station:wmo:42051:1,2006-06-18T23:30:00Z,29.6350,-93.6417,2.0,163.2415411,4.647375603,-99999.0,'11133222,11111222,99999999' 
TABS,ioos:station:wmo:42051:1,2006-06-19T00:00:00Z,29.6350,-93.6417,2.0,154.4859788,0.975089739,-99999.0,'11133222,11111222,99999999' 
TABS,ioos:station:wmo:42051:1,2006-06-19T00:30:00Z,29.6350,-93.6417,2.0,105.3684274,5.320244355,-99999.0,'11133222,11111222,99999999' 
TABS,ioos:station:wmo:42051:1,2006-06-19T01:00:00Z,29.6350,-93.6417,2.0,129.7406395,6.788519721,-99999.0,'11133222,11111222,99999999' 
TABS,ioos:station:wmo:42051:1,2006-06-19T01:30:00Z,29.6350,-93.6417,2.0,126.2081499,6.754450385,-99999.0,'11133222,11111222,99999999' 
TABS,ioos:station:wmo:42051:1,2006-06-19T02:00:00Z,29.6350,-93.6417,2.0,118.5520515,10.18918054,-99999.0,'11111222,11111222,99999999' 
TABS,ioos:station:wmo:42051:1,2006-06-19T02:30:00Z,29.6350,-93.6417,2.0,129.2051607,11.97594673,-99999.0,'11111222,11111222,99999999' 
TABS,ioos:station:wmo:42051:1,2006-06-19T03:00:00Z,29.6350,-93.6417,2.0,145.9457002,10.91117317,-99999.0,'11111222,11111222,99999999' 
TABS,ioos:station:wmo:42051:1,2006-06-19T03:30:00Z,29.6350,-93.6417,2.0,151.0859422,9.493376638,-99999.0,'11133222,11111222,99999999' 
TABS,ioos:station:wmo:42051:1,2006-06-19T04:00:00Z,29.6350,-93.6417,2.0,153.4594226,10.40666133,-99999.0,'11111222,11111222,99999999' 
TABS,ioos:station:wmo:42051:1,2006-06-19T04:30:00Z,29.6350,-93.6417,2.0,146.33053,7.665957214,-99999.0,'11133222,11111222,99999999' 
TABS,ioos:station:wmo:42051:1,2006-06-19T05:00:00Z,29.6350,-93.6417,2.0,145.9139823,9.635372333,-99999.0,'11133222,11111222,99999999' 
TABS,ioos:station:wmo:42051:1,2006-06-19T05:30:00Z,29.6350,-93.6417,2.0,144.1187755,9.503415176,-99999.0,'11133222,11111222,99999999' 
TABS,ioos:station:wmo:42051:1,2006-06-19T06:00:00Z,29.6350,-93.6417,2.0,126.9902435,11.41802522,-99999.0,'11111222,11111222,99999999' 
TABS,ioos:station:wmo:42051:1,2006-06-19T06:30:00Z,29.6350,-93.6417,2.0,120.379055,11.76541542,-99999.0,'11111222,11111222,99999999' 
TABS,ioos:station:wmo:42051:1,2006-06-19T07:00:00Z,29.6350,-93.6417,2.0,121.0835807,13.11281053,-99999.0,'11111222,11111222,99999999' 
TABS,ioos:station:wmo:42051:1,2006-06-19T07:30:00Z,29.6350,-93.6417,2.0,87.39492794,10.34068663,-99999.0,'11111222,11111222,99999999' 
TABS,ioos:station:wmo:42051:1,2006-06-19T08:00:00Z,29.6350,-93.6417,2.0,93.24387592,12.90067053,-99999.0,'11111222,11111222,99999999' 
TABS,ioos:station:wmo:42051:1,2006-06-19T08:30:00Z,29.6350,-93.6417,2.0,98.01645176,12.83542753,-99999.0,'11111222,11111222,99999999' 
TABS,ioos:station:wmo:42051:1,2006-06-19T09:00:00Z,29.6350,-93.6417,2.0,112.840809,11.56700912,-99999.0,'11111222,11111222,99999999' 
TABS,ioos:station:wmo:42051:1,2006-06-19T09:30:00Z,29.6350,-93.6417,2.0,96.62328695,10.05712185,-99999.0,'11111222,11111222,99999999' 
TABS,ioos:station:wmo:42051:1,2006-06-19T10:00:00Z,29.6350,-93.6417,2.0,86.82316255,10.64636088,-99999.0,'11111222,11111222,99999999' 
TABS,ioos:station:wmo:42051:1,2006-06-19T10:30:00Z,29.6350,-93.6417,2.0,91.51385479,11.73409562,-99999.0,'11111222,11111222,99999999' 
TABS,ioos:station:wmo:42051:1,2006-06-19T11:00:00Z,29.6350,-93.6417,2.0,87.94849582,10.05644569,-99999.0,'11111222,11111222,99999999' 
TABS,ioos:station:wmo:42051:1,2006-06-19T11:30:00Z,29.6350,-93.6417,2.0,89.18107856,17.49178664,-99999.0,'11111222,11111222,99999999' 
TABS,ioos:station:wmo:42051:1,2006-06-19T12:00:00Z,29.6350,-93.6417,2.0,103.8673358,14.81171496,-99999.0,'11111222,11111222,99999999' 
TABS,ioos:station:wmo:42051:1,2006-06-19T12:30:00Z,29.6350,-93.6417,2.0,71.99891462,17.95908962,-99999.0,'11111222,11111222,99999999' 
TABS,ioos:station:wmo:42051:1,2006-06-19T13:00:00Z,29.6350,-93.6417,2.0,62.5469861,19.04464229,-99999.0,'11111222,11111222,99999999' 
TABS,ioos:station:wmo:42051:1,2006-06-19T13:30:00Z,29.6350,-93.6417,2.0,61.87917412,15.31824076,-99999.0,'11111222,11111222,99999999' 
TABS,ioos:station:wmo:42051:1,2006-06-19T14:00:00Z,29.6350,-93.6417,2.0,62.31459493,22.64228125,-99999.0,'11111222,11111222,99999999' 
TABS,ioos:station:wmo:42051:1,2006-06-19T14:30:00Z,29.6350,-93.6417,2.0,44.80873772,21.17089512,-99999.0,'11111222,11111222,99999999' 
TABS,ioos:station:wmo:42051:1,2006-06-19T15:00:00Z,29.6350,-93.6417,2.0,59.62094503,22.52236666,-99999.0,'11111222,11111222,99999999' 
TABS,ioos:station:wmo:42051:1,2006-06-19T15:30:00Z,29.6350,-93.6417,2.0,55.79553357,23.78372973,-99999.0,'11111222,11111222,99999999' 
TABS,ioos:station:wmo:42051:1,2006-06-19T16:00:00Z,29.6350,-93.6417,2.0,63.54952574,26.8507579,-99999.0,'11111222,11111222,99999999' 
TABS,ioos:station:wmo:42051:1,2006-06-19T16:30:00Z,29.6350,-93.6417,2.0,67.4152687,20.10154223,-99999.0,'11111222,11111222,99999999' 
TABS,ioos:station:wmo:42051:1,2006-06-19T17:00:00Z,29.6350,-93.6417,2.0,71.74280325,17.33252722,-99999.0,'11111222,11111222,99999999' 
TABS,ioos:station:wmo:42051:1,2006-06-19T17:30:00Z,29.6350,-93.6417,2.0,64.3803253,23.31194544,-99999.0,'11111222,11111222,99999999' 
TABS,ioos:station:wmo:42051:1,2006-06-19T18:00:00Z,29.6350,-93.6417,2.0,79.41467674,13.33696367,-99999.0,'11111222,11111222,99999999' 
TABS,ioos:station:wmo:42051:1,2006-06-19T18:30:00Z,29.6350,-93.6417,2.0,76.36172818,16.4127816,-99999.0,'11111222,11111222,99999999' 
TABS,ioos:station:wmo:42051:1,2006-06-19T19:00:00Z,29.6350,-93.6417,2.0,74.32547265,13.65791346,-99999.0,'11111222,11111222,99999999' 
TABS,ioos:station:wmo:42051:1,2006-06-19T19:30:00Z,29.6350,-93.6417,2.0,70.56481751,13.22349802,-99999.0,'11111222,11111222,99999999' 
TABS,ioos:station:wmo:42051:1,2006-06-19T20:00:00Z,29.6350,-93.6417,2.0,82.57034538,14.22946591,-99999.0,'11111222,11111222,99999999' 
TABS,ioos:station:wmo:42051:1,2006-06-19T20:30:00Z,29.6350,-93.6417,2.0,86.40538182,15.63075174,-99999.0,'11111222,11111222,99999999' 
TABS,ioos:station:wmo:42051:1,2006-06-19T21:00:00Z,29.6350,-93.6417,2.0,83.13059699,11.95582703,-99999.0,'11111222,11111222,99999999' 